Voltar ao catálogo

FENGYUN 1C DEB

AtivoSSO
NORAD 31695·DEBRIS·🇨🇳 China

Lançado May 10, 1999 de Taiyuan Satellite Launch Center

Loading…

Próximas Passagens (próximas 24 horas)

TLE

AtualizadoSource: Space-Track

Época: Sep 14, 2026, 11:33 UTC

1 31695U 99025CDD 26257.48165297  .00006455  00000-0  70519-3 0  9998
2 31695  98.2559 353.2076 0161826  66.8671 294.9500 14.79081863700416

Acompanhe FENGYUN 1C DEB em tempo real com AllMySat

Download on the App Store